User: anonymous   Login
Location: Unspecified
(0.0000°N, 0.0000°E)
Time: 20:49:32
(UTC+00:00)
Language:

CHUANG XIN 16 (CX-16) - Orbit

View from above orbital plane
View from above orbital plane
View from above satellite
View from above satellite

Ground track
Ground track

The orbit is defined by the following mean orbital elements,

1 53586U          26145.32523910 +.00000000 +00000-0 +10841-3 0 00000
2 53586  28.9943 115.6363 0005009 129.6687 230.4355 15.05840401    02
Epoch (UTC): 25 May 2026 07:48:20
Eccentricity: 0.0005009
inclination: 28.9943°
perigee height: 545 km
apogee height: 552 km
right ascension of ascending node: 115.6363°
argument of perigee: 129.6687°
revolutions per day: 15.05840401
mean anomaly at epoch: 230.4355°

The dashed part of the orbit path shows where the satellite is in the earth's shadow,  

DLR